Find Tyche

NORAD ID: 60496 Int'l Des: 2024-149 Owner: UKSC Country: UK operational
LEOCIRCULARRETROGRADESSO

リアルタイム位置

3D地球を読み込み中...

Tycheについて

説明を読み込み中...

次回通過

Passes for default location (London). Set your location on the main map for personalized predictions.

高度履歴

Loading altitude history...

軌道要素

1 60496U 24149AE 26135.28082384 .00002687 00000-0 10801-3 0 9993
2 60496 97.3758 213.5385 0003401 59.8169 300.3406 15.25788868 96884
Epoch: May 15, 2026 • Age: 23 hours

現在のステータス

高度 512.7 km
速度 7.60 km/s
衛星直下点 -56.62°S, 62.09°E
打ち上げ日 Aug 16, 2024
運用期間 1.7 years
タイプ other

技術仕様

分類 Payload
質量 150.00 kg
乾燥質量 150.00 kg
総質量 150.00 kg
長さ 1.00 m
直径 0.60 m
スパン 1.00 m
形状 Box
製造者 SSTL
バスタイプ Carbonite+
フェーズステータス In Orbit
所有者/国 UKSC/UK

Most Searched